Regional Weather Roundup
Issued by NWS Bismarck, ND

Home | Current Version | Previous Version | Text Only | Print | Product List | Glossary On
Versions: 1 2 3 4 5 6 7 8 9 10 11 12 13 14 15 16 17 18 19 20 21 22 23 24 25 26 27 28 29 30 31 32 33 34 35 36 37 38 39 40 41 42 43 44 45 46 47 48 49 50
000
ASUS43 KBIS 211459
RWRBIS

NWR BROADCAST TEXT
NATIONAL WEATHER SERVICE BISMARCK ND
1000 AM CDT SUN SEP 21 2014

NOTE: "FAIR" INDICATES FEW OR NO CLOUDS BELOW 12,000 FEET WITH NO
SIGNIFICANT WEATHER AND/OR OBSTRUCTIONS TO VISIBILITY.


CITY           SKY/WX    TMP DP  RH WIND       PRES   REMARKS
WILLISTON      SUNNY     50  39  66 S5        30.30R
MINOT          SUNNY     57  44  62 NW8       30.26R
MINOT AFB      NOT AVBL
BISMARCK       SUNNY     57  43  59 NW5       30.29R
DICKINSON      NOT AVBL
GARRISON         N/A     57  45  64 NW8       30.27R
HETTINGER ARPT SUNNY     54  42  64 NW3       30.33R
JAMESTOWN      NOT AVBL
BEACH            N/A     55  43  62 W3        30.33R
CARRINGTON     FAIR      55  50  82 NW8       30.25S
CROSBY         FAIR      54  45  71 S5        30.29R
HARVEY         FAIR      54  46  76 NW8       30.26R
HAZEN          FAIR      50  41  71 SW7       30.30R
LINTON         FAIR      54  45  71 NW7       30.29R
OAKES            N/A     57  52  82 N10       30.24R
WATFORD CITY   FAIR      52  37  58 SW5       30.29R
$$

CITY           SKY/WX    TMP DP  RH WIND       PRES   REMARKS
GRAND FORKS    CLOUDY    53  51  93 NW13      30.20R
GRAND FORKS AF PTSUNNY   57  54  88 N13       30.21R
DEVILS LAKE    MOSUNNY   55  45  67 NW10      30.22R
FARGO          CLOUDY    55  50  83 N13       30.20R
CAVALIER       CLOUDY    54  50  87 NW9       30.21R
GRAFTON        CLOUDY    54  52  94 N7        30.20R
GWINNER        SUNNY     57  50  77 N12       30.24R
LANGDON        FAIR      55  50  82 N12       30.22R
ROLLA          FAIR      55  48  76 N8        30.24R
WALHALLA         N/A     54  54 100 NW13      30.21R
$$

CITY           SKY/WX    TMP DP  RH WIND       PRES   REMARKS
ABERDEEN       SUNNY     58  47  66 N9        30.26R
MOBRIDGE       SUNNY     54  44  69 NW9       30.27R
RAPID CITY     SUNNY     60  39  45 CALM      30.36R
GLASGOW        SUNNY     52  40  63 CALM      30.29R
SIDNEY         SUNNY     48  41  76 S6        30.33S
WOLF POINT     SUNNY     48  40  73 CALM      30.31S
MILES CITY     SUNNY     52  40  63 SE6       30.31F
BAKER          SUNNY     53  40  61 CALM      30.34S
$$

CITY           SKY/WX    TMP DP  RH WIND       PRES   REMARKS
BILLINGS       SUNNY     52  42  69 SW6       30.29S
GREAT FALLS    SUNNY     53  44  71 CALM      30.23F
$$



USA.gov is the U.S. government's official web portal to all federal, state and local government web resources and services.